Regional Weather Roundup
Issued by NWS Newport/Morehead, NC

Current Version | Previous Version | Text Only | Print | Product List | Glossary On
Versions: 1 2 3 4 5 6 7 8 9 10 11 12 13 14 15 16 17 18 19 20 21 22 23 24 25 26 27 28 29 30 31 32 33 34 35 36 37 38 39 40 41 42 43 44 45 46 47 48 49 50
000 ASUS42 KMHX 010413 RWRMHX WEATHER ROUNDUP FOR EASTERN NORTH CAROLINA NATIONAL WEATHER SERVICE NEWPORT/MOREHEAD CITY NC 1200 AM EDT SAT OCT 01 2016 NOTE: "FAIR" INDICATES FEW OR NO CLOUDS BELOW 12,000 FEET WITH NO SIGNIFICANT WEATHER AND/OR OBSTRUCTIONS TO VISIBILITY NCZ015>017-031-032-045>047-102-103-010500- NORTH COAST CITY SKY/WX TMP DP RH WIND PRES REMARKS EDENTON MOCLDY 76 76 100 SE7 30.06R ELIZABETH CITY PTCLDY 74 72 93 SE6 30.06S KITTY HAWK CLOUDY 75 75 99 SE5 30.06R MANTEO CLOUDY 76 75 96 S6 30.07S $$ NCZ045>047-081-094-103-104-010500- CENTRAL COAST CITY SKY/WX TMP DP RH WIND PRES REMARKS FRISCO CLOUDY 78 74 87 S12 30.07R $$ NCZ095-097-098-100-101-010500- SOUTHERN COAST CITY SKY/WX TMP DP RH WIND PRES REMARKS BEAUFORT CLEAR 77 73 87 SE10 30.05R CEDAR ISLAND NOT AVBL JACKSONVILLE MOCLDY 75 73 93 S3 30.03R PINEY ISLAND CLEAR N/A N/A N/A S6 30.05S WILMINGTON CLOUDY 74 73 97 S3 30.03R $$ NCZ011>013-027>030-043-044-078>080-089-090>093-098-010500- COASTAL PLAIN CITY SKY/WX TMP DP RH WIND PRES REMARKS AHOSKIE PTCLDY 71 70 97 CALM 30.05S CLINTON MOCLDY 72 72 100 CALM 30.03R ELIZABETHTOWN PTCLDY 71 71 100 S3 30.03R GOLDSBORO PTCLDY 72 72 100 SE5 30.01S GREENVILLE CLEAR 72 72 100 SE6 30.05S HAVELOCK PTCLDY 76 74 93 SE8 30.05S KENANSVILLE NOT AVBL KINSTON PTCLDY 72 71 97 SE5 30.04S NEW BERN PTCLDY 75 72 90 S3 30.05S RICHLANDS FOG 72 72 100 CALM 30.04R VSB 1 ROCKY MOUNT PTCLDY 71 71 100 CALM 30.03S WASHINGTON CLEAR 73 71 95 SE6 30.05R WHITEVILLE NOT AVBL $$ AMZ130-135-150-152-154-156-158-170-250-252-270-ANZ085-086-088-633-658-670-010500- MARINE OBSERVATIONS STATION/POSITION TIME TEMP WIND PRES WAVE SWELL AIR SEA DIR/SP/G HT/PER HT/PER (UTC) (F) (DEG/KT/KT) (MB) (FT/S) (FT/S) CHESAPEAKE LIGHT NOT AVBL 64 E VA BEACH 0350 76 75 170/ 4/ 6 1018.4 7/10 7/10 DUCK 0348 77 77 150/ 13/ 15 1017.4 2 E DUCK 0341 76 N/A 4/11 2/11 OREGON INLET 0348 77 79 150/ 8/ 11 1018.1 13E OREGON INLT 0330 76 N/A 5/11 5/11 HATTERAS CG 0348 78 80 150/ 9/ 14 1017.7 DIAMOND BUOY 0350 80 84 150/ 16/ 19 1017.7 5/11 3/11 CAPE LOOKOUT 0400 79 150/ 13/ 15 1017.2 BEAUFORT LAB 0348 77 77 150/ 9/ 12 1016.8 30 SE NEW RVR IN 0308 81 82 190/ 10/ 14 1017.1 30 SE NEW RVR IN 0325 82 N/A 5/ 6 2/12 27 SE WRIGHTSVLE 0308 81 81 180/ 10/ 12 1017.0 5 SE WRIGHTSVLE 0308 81 80 200/ 10/ 14 1017.7 225 S CAPE HAT 0350 82 83 170/ 12/ 14 1018.8 5/11 5/11 41 SE CHARLESTON 0350 80 82 220/ 10/ 12 1016.4 3/ 5 2/ 5 $$

USA.gov is the U.S. government's official web portal to all federal, state and local government web resources and services.